Regional Weather Roundup
Issued by NWS

Home | Current Version | Previous Version | Text Only | Print | Product List | Glossary Off
Versions: 1 2 3 4 5 6 7 8 9 10 11 12 13 14 15 16 17 18 19 20 21 22 23 24 25 26 27 28 29 30 31 32 33 34 35 36 37 38 39 40 41 42 43 44 45 46 47 48 49 50

000
ASUS45 KPSR 220410
RWRAZ

ARIZONA HOURLY REGIONAL WEATHER ROUNDUP
NATIONAL WEATHER SERVICE PHOENIX AZ
900 PM MST TUE MAR 21 2017

NOTE: FAIR INDICATES FEW OR NO CLOUDS BELOW 12,000 FEET WITH NO
SIGNIFICANT WEATHER AND/OR OBSTRUCTIONS TO VISIBILITY.

AZZ001>003-036-220500-
NORTHWEST ARIZONA

CITY           SKY/WX    TMP DP  RH WIND       PRES   REMARKS
BULLHEAD CITY  CLOUDY    82  30  15 SE9G15    29.84F
KINGMAN        CLOUDY    62  17  17 SE10      30.00R
$$

AZZ004>008-015-016-018-220500-
NORTH CENTRAL ARIZONA

CITY           SKY/WX    TMP DP  RH WIND       PRES   REMARKS
GRAND CANYON   MOCLDY    52  26  36 SW8       30.15R
WILLIAMS       MOCLDY    55  28  35 S8G18     30.16S
PRESCOTT       MOCLDY    56  37  49 S5        30.10R
FLAGSTAFF      PTCLDY    52  25  35 SW9       30.17R
PAYSON         PTCLDY    61  30  31 CALM      30.14R
PAGE           MOCLDY    70  10  10 SW9       29.97R
$$

AZZ009>014-017-220500-
NORTHEAST ARIZONA

CITY           SKY/WX    TMP DP  RH WIND       PRES   REMARKS
WINSLOW        PTCLDY    56  27  32 S10       30.10R
SAINT JOHNS    CLEAR     57  25  29 S5        30.12R
SHOW LOW       CLEAR     54  23  30 S12       30.18S
$$

AZZ023-220500-
GREATER PHOENIX AREA

CITY           SKY/WX    TMP DP  RH WIND       PRES   REMARKS
PHOENIX        PTCLDY    82  39  21 W14       29.89R
BUCKEYE        CLEAR     72  37  28 W8        29.91R
LUKE AFB       CLEAR     77  39  25 CALM      29.89R
DEER VALLEY    CLEAR     77  37  23 W10       29.91R
SCOTTSDALE     CLEAR     79  37  22 CALM      29.92R
MESA-GATEWAY   PTCLDY    81  37  21 W6        29.92R
CHANDLER       CLEAR     79  37  22 W8        29.90R
$$

AZZ027-028-220500-
SOUTHWEST MARICOPA COUNTY AND PINAL COUNTY

CITY           SKY/WX    TMP DP  RH WIND       PRES   REMARKS
CASA GRANDE    NOT AVBL
GILA BEND      CLEAR     77  41  27 SW10      29.90R
$$

AZZ503-504-507>509-220500-
SOUTHEAST ARIZONA

CITY           SKY/WX    TMP DP  RH WIND       PRES   REMARKS
TUCSON         CLEAR     78  26  14 NW5       30.02R
DAVIS-MONTHAN  CLEAR     75  28  17 CALM      30.01R
NOGALES        CLEAR     69  33  26 SE3       30.09R
SIERRA VISTA   CLEAR     67  25  20 SW5       30.13R
DOUGLAS        CLEAR     61  19  19 E7        30.10R
SAFFORD        LGT RAIN  69  26  20 NW8       29.98R
$$

AZZ020-021-025-026-031-220500-
SOUTHWEST ARIZONA

CITY           SKY/WX    TMP DP  RH WIND       PRES   REMARKS
YUMA           CLEAR     75  51  43 W12       29.91
$$

CAZ031-033-041-043-047-048-061-220500-
SOUTHERN CALIFORNIA

CITY           SKY/WX    TMP DP  RH WIND       PRES   REMARKS
DOWNTOWN L.A.  CLOUDY    59  57  93 VRB3      30.06S FOG
L.A. AIRPORT   CLOUDY    57  57 100 E6        30.07R FOG
SAN DIEGO      MOCLDY    66  52  60 S5        30.08R
BURBANK        CLOUDY    57  55  93 S9        30.05R FOG
ONTARIO        LGT RAIN  57  57 100 W7        30.06R FOG
RIVERSIDE      LGT RAIN  57  57 100 W6        30.06S FOG
PALM SPRINGS   CLOUDY    72  53  51 NW15G25   29.93R
EL CENTRO NAS  CLOUDY    73  51  46 W28       29.95R
IMPERIAL       CLOUDY    73  53  49 W22G35    29.91R
BLYTHE         CLOUDY    79  50  36 SW14      29.88R
NEEDLES        MOCLDY    80  32  17 SW8       29.86S
$$

NVZ020-UTZ003-220500-
SOUTHERN NEVADA-UTAH

CITY           SKY/WX    TMP DP  RH WIND       PRES   REMARKS
LAS VEGAS      CLOUDY    72  42  34 S8        29.90R
SALT LAKE CITY MOCLDY    67  30  25 S12G22    29.86R
$$

NMZ009-TXZ055-220500-
NEW MEXICO-WEST TEXAS

CITY           SKY/WX    TMP DP  RH WIND       PRES   REMARKS
ALBUQUERQUE    PTCLDY    65  26  23 E10       30.10F
EL PASO        CLEAR     73  25  16 SE5       30.05R
$$


........................KEY........................
SKY/WX - SKY CONDITION/WEATHER
TMP    - TEMPERATURE IN FAHRENHEIT
DP     - DEW POINT IN FAHRENHEIT
RH     - RELATIVE HUMIDITY IN PERCENT
WIND   - DIRECTION AND SPEED IN MILES PER HOUR (MPH)
VRB    - VARIABLE WIND DIRECTION
PRES   - MEAN SEA LEVEL PRESSURE IN INCHES OF MERCURY
         F - FALLING PRESSURE   R - RISING PRESSURE
         S - STEADY PRESSURE
VSB    - VISIBILITY IN MILES
HX     - HEAT INDEX IN FAHRENHEIT
WCI    - WIND CHILL INDEX IN FAHRENHEIT
TC     - TEMPERATURE IN CELSIUS WHICH IS ALSO KNOWN AS
         TEMPERATURE IN CENTIGRADE
AFB    - AIR FORCE BASE
         LUKE AFB IS LUKE AIR FORCE BASE
         DAVIS-MONTHAN IS DAVIS-MONTHAN AIR FORCE BASE
NAS    - NAVAL AIR STATION
         EL CENTRO NAS IS EL CENTRO NAVAL AIR STATION
N/A    - NOT AVAILABLE




USA.gov is the U.S. government's official web portal to all federal, state and local government web resources and services.